Time,TemperatureF,DewpointF,PressureIn,WindDirection,WindDirectionDegrees,WindSpeedMPH,WindSpeedGustMPH,Humidity,HourlyPrecipIn,Conditions,Clouds,dailyrainin,SoftwareType,DateUTC
2013-02-13 00:00:00,27.5,13.8,27.89,WNW,292,0.0,0.0,56,0.00,CLR,,0.00,WeatherDisplay:10.37,2013-02-13 05:00:00,
2013-02-13 00:05:00,27.5,13.8,27.89,WNW,292,0.0,0.0,56,0.00,CLR,,0.00,WeatherDisplay:10.37,2013-02-13 05:05:00,
2013-02-13 00:10:00,27.5,13.8,27.89,WNW,292,0.0,0.0,56,0.00,CLR,,0.00,WeatherDisplay:10.37,2013-02-13 05:10:00,
2013-02-13 00:15:00,27.3,13.3,27.89,WNW,292,0.0,0.0,55,0.00,CLR,,0.00,WeatherDisplay:10.37,2013-02-13 05:15:00,
2013-02-13 00:20:00,27.1,13.9,27.89,WNW,292,0.0,0.0,57,0.00,CLR,,0.00,WeatherDisplay:10.37,2013-02-13 05:20:00,
2013-02-13 00:25:00,27.1,13.9,27.89,WNW,292,0.0,0.0,57,0.00,CLR,,0.00,WeatherDisplay:10.37,2013-02-13 05:25:00,
2013-02-13 00:30:00,27.0,14.1,27.89,WNW,292,0.0,0.0,58,0.00,CLR,,0.00,WeatherDisplay:10.37,2013-02-13 05:30:00,
2013-02-13 00:35:00,27.0,14.5,27.89,WNW,292,0.0,0.0,59,0.00,CLR,,0.00,WeatherDisplay:10.37,2013-02-13 05:35:00,
2013-02-13 00:40:00,27.1,14.3,27.89,WNW,292,0.0,0.0,58,0.00,CLR,,0.00,WeatherDisplay:10.37,2013-02-13 05:40:00,
2013-02-13 00:45:00,27.3,14.1,27.89,WNW,292,0.0,0.0,57,0.00,CLR,,0.00,WeatherDisplay:10.37,2013-02-13 05:45:00,
2013-02-13 00:50:00,27.3,14.1,27.89,WNW,292,0.0,0.0,57,0.00,CLR,,0.00,WeatherDisplay:10.37,2013-02-13 05:50:00,
2013-02-13 00:55:00,27.3,14.1,27.89,WNW,292,0.0,0.0,57,0.00,CLR,,0.00,WeatherDisplay:10.37,2013-02-13 05:55:00,
2013-02-13 01:00:00,27.5,13.8,27.89,WNW,292,0.0,0.0,56,0.00,CLR,,0.00,WeatherDisplay:10.37,2013-02-13 06:00:00,
2013-02-13 01:05:00,27.5,13.8,27.89,WNW,292,0.0,0.0,56,0.00,CLR,,0.00,WeatherDisplay:10.37,2013-02-13 06:05:00,
2013-02-13 01:10:00,27.3,13.7,27.89,WNW,292,0.0,0.0,56,0.00,CLR,,0.00,WeatherDisplay:10.37,2013-02-13 06:10:00,
2013-02-13 01:15:00,27.3,13.7,27.89,WNW,292,0.0,0.0,56,0.00,CLR,,0.00,WeatherDisplay:10.37,2013-02-13 06:15:00,
2013-02-13 01:20:00,27.5,13.8,27.89,WNW,292,0.0,0.0,56,0.00,CLR,,0.00,WeatherDisplay:10.37,2013-02-13 06:20:00,
2013-02-13 01:25:00,27.5,13.8,27.89,WNW,292,0.0,0.0,56,0.00,CLR,,0.00,WeatherDisplay:10.37,2013-02-13 06:25:00,
2013-02-13 01:30:00,27.3,13.7,27.89,WNW,292,0.0,0.0,56,0.00,CLR,,0.00,WeatherDisplay:10.37,2013-02-13 06:30:00,
2013-02-13 01:35:00,27.0,13.3,27.89,WNW,292,0.0,0.0,56,0.00,CLR,,0.00,WeatherDisplay:10.37,2013-02-13 06:35:00,
2013-02-13 01:40:00,27.1,14.3,27.89,WNW,292,0.0,0.0,58,0.00,CLR,,0.00,WeatherDisplay:10.37,2013-02-13 06:40:00,
2013-02-13 01:45:00,27.0,13.7,27.89,WNW,292,0.0,0.0,57,0.00,CLR,,0.00,WeatherDisplay:10.37,2013-02-13 06:45:00,
2013-02-13 01:50:00,27.0,14.1,27.89,WNW,292,0.0,0.0,58,0.00,CLR,,0.00,WeatherDisplay:10.37,2013-02-13 06:50:00,
2013-02-13 01:55:00,26.8,14.0,27.89,WNW,292,0.0,0.0,58,0.00,CLR,,0.00,WeatherDisplay:10.37,2013-02-13 06:55:00,
2013-02-13 02:00:00,26.6,14.2,27.89,WNW,292,0.0,0.0,59,0.00,CLR,,0.00,WeatherDisplay:10.37,2013-02-13 07:00:00,
2013-02-13 02:05:00,26.6,14.2,27.89,WNW,292,0.0,0.0,59,0.00,CLR,,0.00,WeatherDisplay:10.37,2013-02-13 07:05:00,
2013-02-13 02:10:00,26.4,14.0,27.89,WNW,294,0.0,0.0,59,0.00,CLR,,0.00,WeatherDisplay:10.37,2013-02-13 07:10:00,
2013-02-13 02:15:00,26.2,14.2,27.89,WNW,292,0.0,0.0,60,0.00,CLR,,0.00,WeatherDisplay:10.37,2013-02-13 07:15:00,
2013-02-13 02:20:00,26.2,14.2,27.89,WNW,292,0.0,0.0,60,0.00,CLR,,0.00,WeatherDisplay:10.37,2013-02-13 07:20:00,
2013-02-13 02:25:00,26.2,14.6,27.89,WNW,292,0.0,0.0,61,0.00,CLR,,0.00,WeatherDisplay:10.37,2013-02-13 07:25:00,
2013-02-13 02:30:00,26.4,14.8,27.89,WNW,294,0.0,0.0,61,0.00,CLR,,0.00,WeatherDisplay:10.37,2013-02-13 07:30:00,
2013-02-13 02:35:00,26.4,14.8,27.89,WNW,292,0.0,0.0,61,0.00,CLR,,0.00,WeatherDisplay:10.37,2013-02-13 07:35:00,
2013-02-13 02:40:00,26.4,14.4,27.89,WNW,292,0.0,0.0,60,0.00,CLR,,0.00,WeatherDisplay:10.37,2013-02-13 07:40:00,
2013-02-13 02:45:00,26.2,13.8,27.89,WNW,292,0.0,0.0,59,0.00,CLR,,0.00,WeatherDisplay:10.37,2013-02-13 07:45:00,
2013-02-13 02:50:00,26.2,14.2,27.89,WNW,292,0.0,0.0,60,0.00,CLR,,0.00,WeatherDisplay:10.37,2013-02-13 07:50:00,
2013-02-13 02:55:00,26.2,14.6,27.89,WNW,292,0.0,0.0,61,0.00,CLR,,0.00,WeatherDisplay:10.37,2013-02-13 07:55:00,
2013-02-13 03:00:00,26.2,14.6,27.89,WNW,292,0.0,0.0,61,0.00,CLR,,0.00,WeatherDisplay:10.37,2013-02-13 08:00:00,
2013-02-13 03:05:00,26.2,14.6,27.89,WNW,292,0.0,0.0,61,0.00,CLR,,0.00,WeatherDisplay:10.37,2013-02-13 08:05:00,
2013-02-13 03:10:00,26.1,14.4,27.89,WNW,292,0.0,0.0,61,0.00,CLR,,0.00,WeatherDisplay:10.37,2013-02-13 08:10:00,
2013-02-13 03:15:00,26.1,14.4,27.89,WNW,292,0.0,0.0,61,0.00,CLR,,0.00,WeatherDisplay:10.37,2013-02-13 08:15:00,
2013-02-13 03:20:00,26.1,14.8,27.89,WNW,292,0.0,0.0,62,0.00,CLR,,0.00,WeatherDisplay:10.37,2013-02-13 08:20:00,
2013-02-13 03:25:00,25.9,14.3,27.89,WNW,292,0.0,0.0,61,0.00,CLR,,0.00,WeatherDisplay:10.37,2013-02-13 08:25:00,
2013-02-13 03:30:00,25.9,14.6,27.89,WNW,292,0.0,0.0,62,0.00,CLR,,0.00,WeatherDisplay:10.37,2013-02-13 08:30:00,
2013-02-13 03:35:00,25.7,14.1,27.89,WNW,292,0.0,0.0,61,0.00,CLR,,0.00,WeatherDisplay:10.37,2013-02-13 08:35:00,
2013-02-13 03:40:00,25.7,14.5,27.89,WNW,292,0.0,0.0,62,0.00,CLR,,0.00,WeatherDisplay:10.37,2013-02-13 08:40:00,
2013-02-13 03:45:00,25.9,14.6,27.89,WNW,292,0.0,0.0,62,0.00,CLR,,0.00,WeatherDisplay:10.37,2013-02-13 08:45:00,
2013-02-13 03:50:00,25.5,14.3,27.89,WNW,292,0.0,0.0,62,0.00,CLR,,0.00,WeatherDisplay:10.37,2013-02-13 08:50:00,
2013-02-13 03:55:00,25.3,14.1,27.89,WNW,292,0.0,0.0,62,0.00,CLR,,0.00,WeatherDisplay:10.37,2013-02-13 08:55:00,
2013-02-13 04:00:00,25.5,14.7,27.89,WNW,292,0.0,0.0,63,0.00,CLR,,0.00,WeatherDisplay:10.37,2013-02-13 09:00:00,
2013-02-13 04:05:00,25.7,14.5,27.89,WNW,292,0.0,0.0,62,0.00,CLR,,0.00,WeatherDisplay:10.37,2013-02-13 09:05:00,
2013-02-13 04:10:00,25.3,14.1,27.89,WNW,292,0.0,0.0,62,0.00,CLR,,0.00,WeatherDisplay:10.37,2013-02-13 09:10:00,
2013-02-13 04:15:00,25.2,14.0,27.89,WNW,292,0.0,0.0,62,0.00,CLR,,0.00,WeatherDisplay:10.37,2013-02-13 09:15:00,
2013-02-13 04:20:00,25.0,14.2,27.89,WNW,292,0.0,0.0,63,0.00,CLR,,0.00,WeatherDisplay:10.37,2013-02-13 09:20:00,
2013-02-13 04:25:00,25.2,14.3,27.89,WNW,292,0.0,0.0,63,0.00,CLR,,0.00,WeatherDisplay:10.37,2013-02-13 09:25:00,
2013-02-13 04:30:00,25.0,14.2,27.89,WNW,292,0.0,0.0,63,0.00,CLR,,0.00,WeatherDisplay:10.37,2013-02-13 09:30:00,
2013-02-13 04:35:00,25.0,14.2,27.89,WNW,292,0.0,0.0,63,0.00,CLR,,0.00,WeatherDisplay:10.37,2013-02-13 09:35:00,
2013-02-13 04:40:00,24.8,14.3,27.89,WNW,292,0.0,0.0,64,0.00,CLR,,0.00,WeatherDisplay:10.37,2013-02-13 09:40:00,
2013-02-13 04:45:00,25.0,14.5,27.89,WNW,292,0.0,0.0,64,0.00,CLR,,0.00,WeatherDisplay:10.37,2013-02-13 09:45:00,
2013-02-13 04:50:00,25.2,15.0,27.89,WNW,292,0.0,0.0,65,0.00,CLR,,0.00,WeatherDisplay:10.37,2013-02-13 09:50:00,
2013-02-13 04:55:00,25.3,15.2,27.89,WNW,292,0.0,0.0,65,0.00,CLR,,0.00,WeatherDisplay:10.37,2013-02-13 09:55:00,
2013-02-13 05:00:00,25.5,15.0,27.89,WNW,292,0.0,0.0,64,0.00,CLR,,0.00,WeatherDisplay:10.37,2013-02-13 10:00:00,
2013-02-13 05:05:00,25.7,15.2,27.89,WNW,292,0.0,0.0,64,0.00,CLR,,0.00,WeatherDisplay:10.37,2013-02-13 10:05:00,
2013-02-13 05:10:00,25.5,14.7,27.89,WNW,292,0.0,0.0,63,0.00,CLR,,0.00,WeatherDisplay:10.37,2013-02-13 10:10:00,
2013-02-13 05:15:00,25.3,14.5,27.89,WNW,292,0.0,0.0,63,0.00,CLR,,0.00,WeatherDisplay:10.37,2013-02-13 10:15:00,
2013-02-13 05:20:00,25.0,14.2,27.89,WNW,292,0.0,0.0,63,0.00,CLR,,0.00,WeatherDisplay:10.37,2013-02-13 10:20:00,
2013-02-13 05:25:00,24.6,13.8,27.89,WNW,292,0.0,0.0,63,0.00,CLR,,0.00,WeatherDisplay:10.37,2013-02-13 10:25:00,
2013-02-13 05:30:00,24.6,14.2,27.89,WNW,292,0.0,0.0,64,0.00,CLR,,0.00,WeatherDisplay:10.37,2013-02-13 10:30:00,
2013-02-13 05:35:00,24.8,14.7,27.89,WNW,292,0.0,0.0,65,0.00,CLR,,0.00,WeatherDisplay:10.37,2013-02-13 10:35:00,
2013-02-13 05:40:00,25.2,15.0,27.89,WNW,292,0.0,0.0,65,0.00,CLR,,0.00,WeatherDisplay:10.37,2013-02-13 10:40:00,
2013-02-13 05:45:00,25.3,15.2,27.89,WNW,292,0.0,0.0,65,0.00,CLR,,0.00,WeatherDisplay:10.37,2013-02-13 10:45:00,
2013-02-13 05:50:00,25.5,15.4,27.89,WNW,292,0.0,0.0,65,0.00,CLR,,0.00,WeatherDisplay:10.37,2013-02-13 10:50:00,
2013-02-13 05:55:00,25.2,14.7,27.89,WNW,292,0.0,0.0,64,0.00,CLR,,0.00,WeatherDisplay:10.37,2013-02-13 10:55:00,
2013-02-13 06:00:00,24.8,14.7,27.89,WNW,292,0.0,0.0,65,0.00,CLR,,0.00,WeatherDisplay:10.37,2013-02-13 11:00:00,
2013-02-13 06:05:00,24.8,14.7,27.89,WNW,292,0.0,0.0,65,0.00,CLR,,0.00,WeatherDisplay:10.37,2013-02-13 11:05:00,
2013-02-13 06:10:00,24.8,14.7,27.89,WNW,292,0.0,0.0,65,0.00,CLR,,0.00,WeatherDisplay:10.37,2013-02-13 11:10:00,
2013-02-13 06:15:00,25.2,15.4,27.89,WNW,292,0.0,0.0,66,0.00,CLR,,0.00,WeatherDisplay:10.37,2013-02-13 11:15:00,
2013-02-13 06:20:00,25.5,15.7,27.89,WNW,292,0.0,0.0,66,0.00,CLR,,0.00,WeatherDisplay:10.37,2013-02-13 11:20:00,
2013-02-13 06:25:00,25.9,16.4,27.89,WNW,292,0.0,0.0,67,0.00,CLR,,0.00,WeatherDisplay:10.37,2013-02-13 11:25:00,
2013-02-13 06:30:00,26.1,16.6,27.89,WNW,292,0.0,0.0,67,0.00,CLR,,0.00,WeatherDisplay:10.37,2013-02-13 11:30:00,
2013-02-13 06:35:00,26.2,16.8,27.89,WNW,292,0.0,0.0,67,0.00,CLR,,0.00,WeatherDisplay:10.37,2013-02-13 11:35:00,
2013-02-13 06:40:00,26.2,17.1,27.89,WNW,292,0.0,0.0,68,0.00,CLR,,0.00,WeatherDisplay:10.37,2013-02-13 11:40:00,
2013-02-13 06:45:00,26.4,16.9,27.89,WNW,292,0.0,0.0,67,0.00,CLR,,0.00,WeatherDisplay:10.37,2013-02-13 11:45:00,
2013-02-13 06:50:00,26.4,16.9,27.89,WNW,292,0.0,0.0,67,0.00,CLR,,0.00,WeatherDisplay:10.37,2013-02-13 11:50:00,
2013-02-13 06:55:00,26.4,16.6,27.89,WNW,292,0.0,0.0,66,0.00,CLR,,0.00,WeatherDisplay:10.37,2013-02-13 11:55:00,
2013-02-13 07:00:00,26.6,16.8,27.89,WNW,292,0.0,0.0,66,0.00,CLR,,0.00,WeatherDisplay:10.37,2013-02-13 12:00:00,
2013-02-13 07:05:00,26.6,16.8,27.89,WNW,292,0.0,0.0,66,0.00,CLR,,0.00,WeatherDisplay:10.37,2013-02-13 12:05:00,
2013-02-13 07:10:00,26.8,16.6,27.89,WNW,292,0.0,0.0,65,0.00,CLR,,0.00,WeatherDisplay:10.37,2013-02-13 12:10:00,
2013-02-13 07:15:00,26.4,16.2,27.89,WNW,292,0.0,0.0,65,0.00,CLR,,0.00,WeatherDisplay:10.37,2013-02-13 12:15:00,
2013-02-13 07:20:00,26.6,16.4,27.89,WNW,292,0.0,0.0,65,0.00,CLR,,0.00,WeatherDisplay:10.37,2013-02-13 12:20:00,
2013-02-13 07:25:00,26.6,16.4,27.89,WNW,292,0.0,0.0,65,0.00,CLR,,0.00,WeatherDisplay:10.37,2013-02-13 12:25:00,
2013-02-13 07:30:00,27.0,16.8,27.89,WNW,292,0.0,0.0,65,0.00,CLR,,0.00,WeatherDisplay:10.37,2013-02-13 12:30:00,
2013-02-13 07:35:00,26.8,16.6,27.89,WNW,292,0.0,0.0,65,0.00,CLR,,0.00,WeatherDisplay:10.37,2013-02-13 12:35:00,
2013-02-13 07:40:00,26.6,16.4,27.89,WNW,292,0.0,0.0,65,0.00,CLR,,0.00,WeatherDisplay:10.37,2013-02-13 12:40:00,
2013-02-13 07:45:00,26.8,16.6,27.89,WNW,292,0.0,0.0,65,0.00,CLR,,0.00,WeatherDisplay:10.37,2013-02-13 12:45:00,
2013-02-13 07:50:00,27.1,16.9,27.89,WNW,292,0.0,0.0,65,0.00,CLR,,0.00,WeatherDisplay:10.37,2013-02-13 12:50:00,
2013-02-13 07:55:00,27.7,17.4,27.89,WNW,292,0.0,0.0,65,0.00,CLR,,0.00,WeatherDisplay:10.37,2013-02-13 12:55:00,
2013-02-13 08:00:00,28.4,18.5,27.89,WNW,292,0.0,0.0,66,0.00,CLR,,0.00,WeatherDisplay:10.37,2013-02-13 13:00:00,
2013-02-13 08:05:00,28.9,18.6,27.89,WNW,292,0.0,0.0,65,0.00,CLR,,0.00,WeatherDisplay:10.37,2013-02-13 13:05:00,
2013-02-13 08:10:00,29.3,19.0,27.89,WNW,292,0.0,0.0,65,0.00,CLR,,0.00,WeatherDisplay:10.37,2013-02-13 13:10:00,
2013-02-13 08:15:00,29.7,18.2,27.89,WNW,300,0.0,0.0,62,0.00,CLR,,0.00,WeatherDisplay:10.37,2013-02-13 13:15:00,
2013-02-13 08:20:00,29.8,18.0,27.89,WNW,301,0.0,0.0,61,0.00,CLR,,0.00,WeatherDisplay:10.37,2013-02-13 13:20:00,
2013-02-13 08:25:00,30.0,18.2,27.89,WNW,301,0.0,0.0,61,0.00,CLR,,0.00,WeatherDisplay:10.37,2013-02-13 13:25:00,
2013-02-13 08:30:00,30.2,18.4,27.89,NNE,16,2.3,0.0,61,0.00,CLR,,0.00,WeatherDisplay:10.37,2013-02-13 13:30:00,
2013-02-13 08:35:00,30.6,18.3,27.89,NNE,16,0.0,0.0,60,0.00,CLR,,0.00,WeatherDisplay:10.37,2013-02-13 13:35:00,
2013-02-13 08:40:00,30.7,18.1,27.89,NNE,16,0.0,0.0,59,0.00,CLR,,0.00,WeatherDisplay:10.37,2013-02-13 13:40:00,
2013-02-13 08:45:00,31.1,18.4,27.89,NNE,16,0.0,0.0,59,0.00,CLR,,0.00,WeatherDisplay:10.37,2013-02-13 13:45:00,
2013-02-13 08:50:00,31.5,18.4,27.89,NNE,16,0.0,0.0,58,0.00,CLR,,0.00,WeatherDisplay:10.37,2013-02-13 13:50:00,
2013-02-13 08:55:00,31.6,17.7,27.89,NNE,16,0.0,0.0,56,0.00,CLR,,0.00,WeatherDisplay:10.37,2013-02-13 13:55:00,
2013-02-13 09:00:00,32.0,18.1,27.89,NNE,16,0.0,0.0,56,0.00,CLR,,0.00,WeatherDisplay:10.37,2013-02-13 14:00:00,
2013-02-13 09:05:00,32.2,17.8,27.89,NNE,16,0.0,0.0,55,0.00,CLR,,0.00,WeatherDisplay:10.37,2013-02-13 14:05:00,
2013-02-13 09:10:00,32.5,17.7,27.89,NNE,16,0.0,0.0,54,0.00,CLR,,0.00,WeatherDisplay:10.37,2013-02-13 14:10:00,
2013-02-13 09:15:00,32.7,17.9,27.89,NNE,16,0.0,0.0,54,0.00,CLR,,0.00,WeatherDisplay:10.37,2013-02-13 14:15:00,
2013-02-13 09:20:00,32.5,17.3,27.89,NNW,334,3.5,0.0,53,0.00,CLR,,0.00,WeatherDisplay:10.37,2013-02-13 14:20:00,
2013-02-13 09:25:00,32.7,17.5,27.89,North,8,0.0,0.0,53,0.00,CLR,,0.00,WeatherDisplay:10.37,2013-02-13 14:25:00,
2013-02-13 09:30:00,32.9,17.2,27.89,NNE,16,3.5,3.5,52,0.00,CLR,,0.00,WeatherDisplay:10.37,2013-02-13 14:30:00,
2013-02-13 09:35:00,33.8,17.6,27.89,ENE,68,3.5,3.5,51,0.00,CLR,,0.00,WeatherDisplay:10.37,2013-02-13 14:35:00,
2013-02-13 09:40:00,35.4,19.1,27.89,ESE,116,3.5,3.5,51,0.00,CLR,,0.00,WeatherDisplay:10.37,2013-02-13 14:40:00,
2013-02-13 09:45:00,35.6,18.8,27.89,SE,129,3.5,3.5,50,0.00,CLR,,0.00,WeatherDisplay:10.37,2013-02-13 14:45:00,
2013-02-13 09:50:00,35.6,18.3,27.89,ESE,117,2.7,0.0,49,0.00,CLR,,0.00,WeatherDisplay:10.37,2013-02-13 14:50:00,
2013-02-13 09:55:00,35.8,17.5,27.89,ESE,117,0.0,0.0,47,0.00,CLR,,0.00,WeatherDisplay:10.37,2013-02-13 14:55:00,
2013-02-13 10:00:00,36.1,17.8,27.89,ESE,117,0.0,0.0,47,0.00,CLR,,0.00,WeatherDisplay:10.37,2013-02-13 15:00:00,
2013-02-13 10:05:00,36.5,16.6,27.89,ENE,77,0.0,0.0,44,0.00,CLR,,0.00,WeatherDisplay:10.37,2013-02-13 15:05:00,
2013-02-13 10:10:00,36.9,15.9,27.89,ENE,74,0.0,0.0,42,0.00,CLR,,0.00,WeatherDisplay:10.37,2013-02-13 15:10:00,
2013-02-13 10:15:00,37.6,16.0,27.89,ENE,73,0.0,0.0,41,0.00,CLR,,0.00,WeatherDisplay:10.37,2013-02-13 15:15:00,
2013-02-13 10:20:00,38.1,16.5,27.89,ENE,69,0.0,0.0,41,0.00,CLR,,0.00,WeatherDisplay:10.37,2013-02-13 15:20:00,
2013-02-13 10:25:00,38.7,15.8,27.89,ENE,65,0.0,0.0,39,0.00,CLR,,0.00,WeatherDisplay:10.37,2013-02-13 15:25:00,
2013-02-13 10:30:00,38.7,15.8,27.89,NNE,13,3.5,3.5,39,0.00,CLR,,0.00,WeatherDisplay:10.37,2013-02-13 15:30:00,
2013-02-13 10:35:00,39.6,16.0,27.89,East,98,3.5,0.0,38,0.00,CLR,,0.00,WeatherDisplay:10.37,2013-02-13 15:35:00,
2013-02-13 10:40:00,39.2,15.7,27.89,ENE,62,4.6,4.6,38,0.00,CLR,,0.00,WeatherDisplay:10.37,2013-02-13 15:40:00,
2013-02-13 10:45:00,39.4,15.8,27.89,ENE,65,3.5,3.5,38,0.00,CLR,,0.00,WeatherDisplay:10.37,2013-02-13 15:45:00,
2013-02-13 10:50:00,42.3,18.4,27.89,SE,130,2.3,2.3,38,0.00,CLR,,0.00,WeatherDisplay:10.37,2013-02-13 15:50:00,
2013-02-13 10:55:00,41.0,16.0,27.89,East,79,3.5,3.5,36,0.00,CLR,,0.00,WeatherDisplay:10.37,2013-02-13 15:55:00,
2013-02-13 11:00:00,40.8,15.9,27.89,NE,54,3.5,0.0,36,0.00,CLR,,0.00,WeatherDisplay:10.37,2013-02-13 16:00:00,
2013-02-13 11:05:00,40.6,15.7,27.89,North,353,0.0,0.0,36,0.00,CLR,,0.00,WeatherDisplay:10.37,2013-02-13 16:05:00,
2013-02-13 11:10:00,40.3,15.4,27.89,NNW,327,3.1,0.0,36,0.00,CLR,,0.00,WeatherDisplay:10.37,2013-02-13 16:10:00,
2013-02-13 11:15:00,39.7,14.9,27.89,SE,133,3.5,3.5,36,0.00,CLR,,0.00,WeatherDisplay:10.37,2013-02-13 16:15:00,
2013-02-13 11:20:00,39.9,15.1,27.89,SE,133,0.0,0.0,36,0.00,CLR,,0.00,WeatherDisplay:10.37,2013-02-13 16:20:00,
2013-02-13 11:25:00,39.9,15.1,27.89,NNW,337,3.5,0.0,36,0.00,CLR,,0.00,WeatherDisplay:10.37,2013-02-13 16:25:00,
2013-02-13 11:30:00,40.3,15.4,27.89,NNW,337,0.0,0.0,36,0.00,CLR,,0.00,WeatherDisplay:10.37,2013-02-13 16:30:00,
2013-02-13 11:35:00,40.3,15.4,27.89,ENE,75,2.2,0.0,36,0.00,CLR,,0.00,WeatherDisplay:10.37,2013-02-13 16:35:00,
2013-02-13 11:40:00,40.3,15.4,27.89,East,93,0.0,0.0,36,0.00,CLR,,0.00,WeatherDisplay:10.37,2013-02-13 16:40:00,
2013-02-13 11:45:00,40.3,15.4,27.89,West,276,0.0,0.0,36,0.00,CLR,,0.00,WeatherDisplay:10.37,2013-02-13 16:45:00,
2013-02-13 11:50:00,40.1,15.2,27.89,NNE,27,0.0,0.0,36,0.00,CLR,,0.00,WeatherDisplay:10.37,2013-02-13 16:50:00,
2013-02-13 11:55:00,40.3,15.4,27.89,NNE,16,0.0,0.0,36,0.00,CLR,,0.00,WeatherDisplay:10.37,2013-02-13 16:55:00,
2013-02-13 12:00:00,39.9,15.1,27.89,North,10,0.0,0.0,36,0.00,CLR,,0.00,WeatherDisplay:10.37,2013-02-13 17:00:00,
2013-02-13 12:05:00,39.9,15.1,27.89,North,6,0.0,0.0,36,0.00,CLR,,0.00,WeatherDisplay:10.37,2013-02-13 17:05:00,
2013-02-13 12:10:00,40.1,15.2,27.89,NE,44,0.0,0.0,36,0.00,CLR,,0.00,WeatherDisplay:10.37,2013-02-13 17:10:00,
2013-02-13 12:15:00,39.9,15.1,27.89,NNW,333,4.6,4.6,36,0.00,CLR,,0.00,WeatherDisplay:10.37,2013-02-13 17:15:00,
2013-02-13 12:20:00,39.9,15.1,27.89,NNW,342,5.8,5.8,36,0.00,CLR,,0.00,WeatherDisplay:10.37,2013-02-13 17:20:00,
2013-02-13 12:25:00,39.9,15.1,27.89,North,6,3.1,0.0,36,0.00,CLR,,0.00,WeatherDisplay:10.37,2013-02-13 17:25:00,
2013-02-13 12:30:00,39.6,14.8,27.89,ESE,111,2.2,0.0,36,0.00,CLR,,0.00,WeatherDisplay:10.37,2013-02-13 17:30:00,
2013-02-13 12:35:00,39.7,14.9,27.89,NNW,340,3.1,3.1,36,0.00,CLR,,0.00,WeatherDisplay:10.37,2013-02-13 17:35:00,
2013-02-13 12:40:00,39.4,14.6,27.89,WNW,301,0.0,0.0,36,0.00,CLR,,0.00,WeatherDisplay:10.37,2013-02-13 17:40:00,
2013-02-13 12:45:00,39.2,14.4,27.89,NNW,344,0.0,0.0,36,0.00,CLR,,0.00,WeatherDisplay:10.37,2013-02-13 17:45:00,
2013-02-13 12:50:00,39.0,14.3,27.89,NNE,18,3.5,0.0,36,0.00,CLR,,0.00,WeatherDisplay:10.37,2013-02-13 17:50:00,
2013-02-13 12:55:00,38.8,14.1,27.89,NNW,339,0.0,0.0,36,0.00,CLR,,0.00,WeatherDisplay:10.37,2013-02-13 17:55:00,
2013-02-13 13:00:00,39.0,14.3,27.89,NNW,333,0.0,0.0,36,0.00,CLR,,0.00,WeatherDisplay:10.37,2013-02-13 18:00:00,
2013-02-13 13:05:00,39.4,14.6,27.89,NNW,340,2.3,0.0,36,0.00,CLR,,0.00,WeatherDisplay:10.37,2013-02-13 18:05:00,
2013-02-13 13:10:00,39.4,14.6,27.89,NNW,345,0.0,0.0,36,0.00,CLR,,0.00,WeatherDisplay:10.37,2013-02-13 18:10:00,
2013-02-13 13:15:00,39.2,14.4,27.89,NNW,330,0.0,0.0,36,0.00,CLR,,0.00,WeatherDisplay:10.37,2013-02-13 18:15:00,
2013-02-13 13:20:00,39.2,14.4,27.89,North,350,2.7,0.0,36,0.00,CLR,,0.00,WeatherDisplay:10.37,2013-02-13 18:20:00,
2013-02-13 13:25:00,39.0,14.3,27.89,NW,324,2.3,2.3,36,0.00,CLR,,0.00,WeatherDisplay:10.37,2013-02-13 18:25:00,
2013-02-13 13:30:00,38.8,14.1,27.89,NW,317,2.3,2.3,36,0.00,CLR,,0.00,WeatherDisplay:10.37,2013-02-13 18:30:00,
2013-02-13 13:35:00,38.7,14.0,27.89,NNW,345,0.0,0.0,36,0.00,CLR,,0.00,WeatherDisplay:10.37,2013-02-13 18:35:00,
2013-02-13 13:40:00,38.7,14.0,27.89,NNE,26,0.0,0.0,36,0.00,CLR,,0.00,WeatherDisplay:10.37,2013-02-13 18:40:00,
2013-02-13 13:45:00,38.7,14.0,27.89,NNE,26,0.0,0.0,36,0.00,CLR,,0.00,WeatherDisplay:10.37,2013-02-13 18:45:00,
2013-02-13 13:50:00,39.0,14.3,27.89,NW,326,0.0,0.0,36,0.00,CLR,,0.00,WeatherDisplay:10.37,2013-02-13 18:50:00,
2013-02-13 13:55:00,39.0,14.3,27.89,NW,320,2.3,0.0,36,0.00,CLR,,0.00,WeatherDisplay:10.37,2013-02-13 18:55:00,
2013-02-13 14:00:00,38.8,14.1,27.89,NW,320,0.0,0.0,36,0.00,CLR,,0.00,WeatherDisplay:10.37,2013-02-13 19:00:00,
2013-02-13 14:05:00,38.7,14.0,27.89,North,357,0.0,0.0,36,0.00,CLR,,0.00,WeatherDisplay:10.37,2013-02-13 19:05:00,
2013-02-13 14:10:00,38.5,13.8,27.89,NNE,25,0.0,0.0,36,0.00,CLR,,0.00,WeatherDisplay:10.37,2013-02-13 19:10:00,
2013-02-13 14:15:00,38.5,13.8,27.89,NNW,341,0.0,0.0,36,0.00,CLR,,0.00,WeatherDisplay:10.37,2013-02-13 19:15:00,
2013-02-13 14:20:00,38.5,13.8,27.89,NNW,341,0.0,0.0,36,0.00,CLR,,0.00,WeatherDisplay:10.37,2013-02-13 19:20:00,
2013-02-13 14:25:00,38.3,13.6,27.89,NNW,341,0.0,0.0,36,0.00,CLR,,0.00,WeatherDisplay:10.37,2013-02-13 19:25:00,
2013-02-13 14:30:00,38.5,13.8,27.89,NNE,17,0.0,0.0,36,0.00,CLR,,0.00,WeatherDisplay:10.37,2013-02-13 19:30:00,
2013-02-13 14:35:00,38.5,13.8,27.89,NNE,17,0.0,0.0,36,0.00,CLR,,0.00,WeatherDisplay:10.37,2013-02-13 19:35:00,
2013-02-13 14:40:00,38.5,13.8,27.89,NNE,17,0.0,0.0,36,0.00,CLR,,0.00,WeatherDisplay:10.37,2013-02-13 19:40:00,
2013-02-13 14:45:00,38.5,13.8,27.89,NNE,17,0.0,0.0,36,0.00,CLR,,0.00,WeatherDisplay:10.37,2013-02-13 19:45:00,
2013-02-13 14:50:00,38.5,13.8,27.89,NNE,17,0.0,0.0,36,0.00,CLR,,0.00,WeatherDisplay:10.37,2013-02-13 19:50:00,
2013-02-13 14:55:00,38.7,14.0,27.89,NNE,17,0.0,0.0,36,0.00,CLR,,0.00,WeatherDisplay:10.37,2013-02-13 19:55:00,
2013-02-13 15:00:00,38.5,13.8,27.89,NNW,331,2.3,0.0,36,0.00,CLR,,0.00,WeatherDisplay:10.37,2013-02-13 20:00:00,
2013-02-13 15:05:00,38.5,13.8,27.89,WNW,298,3.5,3.5,36,0.00,CLR,,0.00,WeatherDisplay:10.37,2013-02-13 20:05:00,
2013-02-13 15:10:00,38.3,13.6,27.89,WNW,298,3.5,0.0,36,0.00,CLR,,0.00,WeatherDisplay:10.37,2013-02-13 20:10:00,
2013-02-13 15:15:00,37.9,13.3,27.89,NW,312,2.3,0.0,36,0.00,CLR,,0.00,WeatherDisplay:10.37,2013-02-13 20:15:00,
2013-02-13 15:20:00,37.6,13.0,27.89,West,270,0.0,0.0,36,0.00,CLR,,0.00,WeatherDisplay:10.37,2013-02-13 20:20:00,
2013-02-13 15:25:00,36.9,14.2,27.89,West,276,3.5,0.0,39,0.00,CLR,,0.00,WeatherDisplay:10.37,2013-02-13 20:25:00,
2013-02-13 15:30:00,36.0,13.4,27.89,West,276,0.0,0.0,39,0.00,CLR,,0.00,WeatherDisplay:10.37,2013-02-13 20:30:00,
2013-02-13 15:35:00,35.8,14.9,27.89,West,276,0.0,0.0,42,0.00,CLR,,0.00,WeatherDisplay:10.37,2013-02-13 20:35:00,
2013-02-13 15:40:00,35.4,16.2,27.89,West,276,0.0,0.0,45,0.00,CLR,,0.00,WeatherDisplay:10.37,2013-02-13 20:40:00,
2013-02-13 15:45:00,35.4,19.1,27.89,West,276,0.0,0.0,51,0.00,CLR,,0.00,WeatherDisplay:10.37,2013-02-13 20:45:00,
2013-02-13 15:50:00,35.2,18.9,27.89,West,279,0.0,0.0,51,0.00,CLR,,0.00,WeatherDisplay:10.37,2013-02-13 20:50:00,
2013-02-13 15:55:00,35.1,18.7,27.89,West,276,0.0,0.0,51,0.00,CLR,,0.00,WeatherDisplay:10.37,2013-02-13 20:55:00,
2013-02-13 16:00:00,35.1,19.2,27.89,SW,236,3.5,3.5,52,0.00,CLR,,0.00,WeatherDisplay:10.37,2013-02-13 21:00:00,
2013-02-13 16:05:00,34.9,19.9,27.89,WSW,237,2.3,0.0,54,0.00,CLR,,0.00,WeatherDisplay:10.37,2013-02-13 21:05:00,
2013-02-13 16:10:00,34.3,21.1,27.89,WSW,258,0.0,0.0,58,0.00,CLR,,0.00,WeatherDisplay:10.37,2013-02-13 21:10:00,
2013-02-13 16:15:00,34.0,21.5,27.89,WSW,254,0.0,0.0,60,0.00,CLR,,0.00,WeatherDisplay:10.37,2013-02-13 21:15:00,
2013-02-13 16:20:00,33.8,21.8,27.89,WSW,254,0.0,0.0,61,0.00,CLR,,0.00,WeatherDisplay:10.37,2013-02-13 21:20:00,
2013-02-13 16:25:00,33.6,21.6,27.89,WSW,254,0.0,0.0,61,0.00,CLR,,0.00,WeatherDisplay:10.37,2013-02-13 21:25:00,
2013-02-13 16:30:00,33.4,21.8,27.89,WSW,254,0.0,0.0,62,0.00,CLR,,0.00,WeatherDisplay:10.37,2013-02-13 21:30:00,
2013-02-13 16:35:00,33.4,22.2,27.89,WSW,254,0.0,0.0,63,0.00,CLR,,0.00,WeatherDisplay:10.37,2013-02-13 21:35:00,
2013-02-13 16:40:00,33.4,22.6,27.89,WSW,254,0.0,0.0,64,0.00,CLR,,0.00,WeatherDisplay:10.37,2013-02-13 21:40:00,
2013-02-13 16:45:00,33.3,23.1,27.89,WSW,254,0.0,0.0,66,0.00,CLR,,0.00,WeatherDisplay:10.37,2013-02-13 21:45:00,
2013-02-13 16:50:00,33.3,23.5,27.89,WSW,254,0.0,0.0,67,0.00,CLR,,0.00,WeatherDisplay:10.37,2013-02-13 21:50:00,
2013-02-13 16:55:00,33.3,24.2,27.89,WSW,254,0.0,0.0,69,0.00,CLR,,0.00,WeatherDisplay:10.37,2013-02-13 21:55:00,
2013-02-13 17:00:00,33.3,24.5,27.89,WSW,254,0.0,0.0,70,0.00,CLR,,0.00,WeatherDisplay:10.37,2013-02-13 22:00:00,
2013-02-13 17:05:00,33.3,24.5,27.89,WSW,254,0.0,0.0,70,0.00,CLR,,0.00,WeatherDisplay:10.37,2013-02-13 22:05:00,
2013-02-13 17:10:00,33.3,24.5,27.89,WSW,254,0.0,0.0,70,0.00,CLR,,0.00,WeatherDisplay:10.37,2013-02-13 22:10:00,
2013-02-13 17:15:00,33.3,24.9,27.89,WSW,254,0.0,0.0,71,0.00,CLR,,0.00,WeatherDisplay:10.37,2013-02-13 22:15:00,
2013-02-13 17:20:00,33.1,24.7,27.89,WSW,254,0.0,0.0,71,0.00,CLR,,0.00,WeatherDisplay:10.37,2013-02-13 22:20:00,
2013-02-13 17:25:00,33.1,24.7,27.89,WSW,254,0.0,0.0,71,0.00,CLR,,0.00,WeatherDisplay:10.37,2013-02-13 22:25:00,
2013-02-13 17:30:00,33.1,24.7,27.89,WSW,254,0.0,0.0,71,0.00,CLR,,0.00,WeatherDisplay:10.37,2013-02-13 22:30:00,
2013-02-13 17:35:00,33.1,24.7,27.89,WSW,254,0.0,0.0,71,0.00,CLR,,0.00,WeatherDisplay:10.37,2013-02-13 22:35:00,
2013-02-13 17:40:00,33.1,25.0,27.89,WSW,250,0.0,0.0,72,0.00,CLR,,0.00,WeatherDisplay:10.37,2013-02-13 22:40:00,
2013-02-13 17:45:00,33.1,25.4,27.89,WSW,250,0.0,0.0,73,0.00,CLR,,0.00,WeatherDisplay:10.37,2013-02-13 22:45:00,
2013-02-13 17:50:00,33.1,25.4,27.89,WSW,250,0.0,0.0,73,0.00,CLR,,0.00,WeatherDisplay:10.37,2013-02-13 22:50:00,
2013-02-13 17:55:00,33.1,25.4,27.89,WSW,250,0.0,0.0,73,0.00,CLR,,0.00,WeatherDisplay:10.37,2013-02-13 22:55:00,
2013-02-13 18:00:00,33.1,25.4,27.89,WSW,250,0.0,0.0,73,0.00,CLR,,0.00,WeatherDisplay:10.37,2013-02-13 23:00:00,
2013-02-13 18:05:00,33.1,25.7,27.89,WSW,250,0.0,0.0,74,0.00,CLR,,0.00,WeatherDisplay:10.37,2013-02-13 23:05:00,
2013-02-13 18:10:00,33.1,25.7,27.89,WSW,250,0.0,0.0,74,0.00,CLR,,0.00,WeatherDisplay:10.37,2013-02-13 23:10:00,
2013-02-13 18:15:00,33.1,26.0,27.89,WSW,250,0.0,0.0,75,0.00,CLR,,0.00,WeatherDisplay:10.37,2013-02-13 23:15:00,
2013-02-13 18:20:00,33.1,26.0,27.89,WSW,250,0.0,0.0,75,0.00,CLR,,0.00,WeatherDisplay:10.37,2013-02-13 23:20:00,
2013-02-13 18:25:00,33.1,26.3,27.89,WSW,250,0.0,0.0,76,0.00,CLR,,0.00,WeatherDisplay:10.37,2013-02-13 23:25:00,
2013-02-13 18:30:00,33.1,26.3,27.89,WSW,250,0.0,0.0,76,0.00,CLR,,0.00,WeatherDisplay:10.37,2013-02-13 23:30:00,
2013-02-13 18:35:00,33.1,26.7,27.89,WSW,250,0.0,0.0,77,0.00,CLR,,0.00,WeatherDisplay:10.37,2013-02-13 23:35:00,
2013-02-13 18:40:00,33.1,27.0,27.89,WSW,250,0.0,0.0,78,0.00,CLR,,0.00,WeatherDisplay:10.37,2013-02-13 23:40:00,
2013-02-13 18:45:00,33.1,27.3,27.89,WNW,284,0.0,0.0,79,0.00,CLR,,0.00,WeatherDisplay:10.37,2013-02-13 23:45:00,
2013-02-13 18:50:00,33.1,27.3,27.89,WNW,284,0.0,0.0,79,0.00,CLR,,0.00,WeatherDisplay:10.37,2013-02-13 23:50:00,
2013-02-13 18:55:00,33.1,27.3,27.89,WNW,284,0.0,0.0,79,0.00,CLR,,0.00,WeatherDisplay:10.37,2013-02-13 23:55:00,
2013-02-13 19:00:00,32.9,27.1,27.89,NE,36,0.0,0.0,79,0.00,CLR,,0.00,WeatherDisplay:10.37,2013-02-14 00:00:00,
2013-02-13 19:05:00,32.9,27.4,27.89,NE,36,0.0,0.0,80,0.00,CLR,,0.00,WeatherDisplay:10.37,2013-02-14 00:05:00,
2013-02-13 19:10:00,32.9,27.4,27.89,North,0,0.0,0.0,80,0.00,CLR,,0.00,WeatherDisplay:10.37,2013-02-14 00:10:00,
2013-02-13 19:15:00,32.9,27.4,27.89,North,0,0.0,0.0,80,0.00,CLR,,0.00,WeatherDisplay:10.37,2013-02-14 00:15:00,
2013-02-13 19:20:00,33.1,27.9,27.89,NNE,25,0.0,0.0,81,0.00,CLR,,0.00,WeatherDisplay:10.37,2013-02-14 00:20:00,
2013-02-13 19:25:00,32.9,27.7,27.89,NNW,342,0.0,0.0,81,0.00,CLR,,0.00,WeatherDisplay:10.37,2013-02-14 00:25:00,
2013-02-13 19:30:00,32.9,27.7,27.89,NNW,342,0.0,0.0,81,0.00,CLR,,0.00,WeatherDisplay:10.37,2013-02-14 00:30:00,
2013-02-13 19:35:00,32.9,28.0,27.89,NNE,21,0.0,0.0,82,0.00,CLR,,0.00,WeatherDisplay:10.37,2013-02-14 00:35:00,
2013-02-13 19:40:00,32.9,28.0,27.89,NNE,21,0.0,0.0,82,0.00,CLR,,0.00,WeatherDisplay:10.37,2013-02-14 00:40:00,
2013-02-13 19:45:00,32.9,28.3,27.89,NNE,21,0.0,0.0,83,0.00,CLR,,0.00,WeatherDisplay:10.37,2013-02-14 00:45:00,
2013-02-13 19:50:00,32.9,28.3,27.89,West,259,0.0,0.0,83,0.00,CLR,,0.00,WeatherDisplay:10.37,2013-02-14 00:50:00,
2013-02-13 19:55:00,32.9,28.6,27.89,West,259,0.0,0.0,84,0.00,CLR,,0.00,WeatherDisplay:10.37,2013-02-14 00:55:00,
2013-02-13 20:00:00,32.9,28.6,27.89,West,259,0.0,0.0,84,0.00,CLR,,0.00,WeatherDisplay:10.37,2013-02-14 01:00:00,
2013-02-13 20:05:00,32.9,28.6,27.89,West,259,0.0,0.0,84,0.00,CLR,,0.00,WeatherDisplay:10.37,2013-02-14 01:05:00,
2013-02-13 20:10:00,32.7,28.4,27.89,West,259,0.0,0.0,84,0.00,CLR,,0.00,WeatherDisplay:10.37,2013-02-14 01:10:00,
2013-02-13 20:15:00,32.7,28.4,27.89,West,259,0.0,0.0,84,0.00,CLR,,0.00,WeatherDisplay:10.37,2013-02-14 01:15:00,
2013-02-13 20:20:00,32.7,28.4,27.89,West,259,0.0,0.0,84,0.00,CLR,,0.00,WeatherDisplay:10.37,2013-02-14 01:20:00,
2013-02-13 20:25:00,32.7,28.4,27.89,West,259,0.0,0.0,84,0.00,CLR,,0.00,WeatherDisplay:10.37,2013-02-14 01:25:00,
2013-02-13 20:30:00,32.7,28.1,27.89,West,259,0.0,0.0,83,0.00,CLR,,0.00,WeatherDisplay:10.37,2013-02-14 01:30:00,
2013-02-13 20:35:00,32.5,28.0,27.89,West,259,0.0,0.0,83,0.00,CLR,,0.00,WeatherDisplay:10.37,2013-02-14 01:35:00,
2013-02-13 20:40:00,32.5,28.0,27.89,West,259,0.0,0.0,83,0.00,CLR,,0.00,WeatherDisplay:10.37,2013-02-14 01:40:00,
2013-02-13 20:45:00,32.5,28.0,27.89,West,259,0.0,0.0,83,0.00,CLR,,0.00,WeatherDisplay:10.37,2013-02-14 01:45:00,
2013-02-13 20:50:00,32.4,27.8,27.89,West,259,0.0,0.0,83,0.00,CLR,,0.00,WeatherDisplay:10.37,2013-02-14 01:50:00,
2013-02-13 20:55:00,32.2,27.3,27.89,West,259,0.0,0.0,82,0.00,CLR,,0.00,WeatherDisplay:10.37,2013-02-14 01:55:00,
2013-02-13 21:00:00,31.8,26.4,27.89,West,259,0.0,0.0,80,0.00,CLR,,0.00,WeatherDisplay:10.37,2013-02-14 02:00:00,
2013-02-13 21:05:00,31.6,25.9,27.89,West,259,0.0,0.0,79,0.00,CLR,,0.00,WeatherDisplay:10.37,2013-02-14 02:05:00,
2013-02-13 21:10:00,31.1,25.0,27.89,West,259,0.0,0.0,78,0.00,CLR,,0.00,WeatherDisplay:10.37,2013-02-14 02:10:00,
2013-02-13 21:15:00,30.7,24.1,27.89,West,259,0.0,0.0,76,0.00,CLR,,0.00,WeatherDisplay:10.37,2013-02-14 02:15:00,
2013-02-13 21:20:00,30.2,23.5,27.89,West,259,0.0,0.0,76,0.00,CLR,,0.00,WeatherDisplay:10.37,2013-02-14 02:20:00,
2013-02-13 21:25:00,30.0,23.4,27.89,West,259,0.0,0.0,76,0.00,CLR,,0.00,WeatherDisplay:10.37,2013-02-14 02:25:00,
2013-02-13 21:30:00,29.7,23.0,27.89,West,259,0.0,0.0,76,0.00,CLR,,0.00,WeatherDisplay:10.37,2013-02-14 02:30:00,
2013-02-13 21:35:00,29.5,22.8,27.89,West,259,0.0,0.0,76,0.00,CLR,,0.00,WeatherDisplay:10.37,2013-02-14 02:35:00,
2013-02-13 21:40:00,29.5,22.8,27.89,West,259,0.0,0.0,76,0.00,CLR,,0.00,WeatherDisplay:10.37,2013-02-14 02:40:00,
2013-02-13 21:45:00,29.5,23.2,27.89,West,259,0.0,0.0,77,0.00,CLR,,0.00,WeatherDisplay:10.37,2013-02-14 02:45:00,
2013-02-13 21:50:00,29.5,23.8,27.89,West,259,0.0,0.0,79,0.00,CLR,,0.00,WeatherDisplay:10.37,2013-02-14 02:50:00,
2013-02-13 21:55:00,29.5,24.1,27.89,West,259,0.0,0.0,80,0.00,CLR,,0.00,WeatherDisplay:10.37,2013-02-14 02:55:00,
2013-02-13 22:00:00,29.1,23.7,27.89,West,259,0.0,0.0,80,0.00,CLR,,0.00,WeatherDisplay:10.37,2013-02-14 03:00:00,
2013-02-13 22:05:00,28.8,23.1,27.89,West,259,0.0,0.0,79,0.00,CLR,,0.00,WeatherDisplay:10.37,2013-02-14 03:05:00,
2013-02-13 22:10:00,28.6,22.9,27.89,West,259,0.0,0.0,79,0.00,CLR,,0.00,WeatherDisplay:10.37,2013-02-14 03:10:00,
2013-02-13 22:15:00,28.4,23.0,27.89,West,259,0.0,0.0,80,0.00,CLR,,0.00,WeatherDisplay:10.37,2013-02-14 03:15:00,
2013-02-13 22:20:00,28.2,22.8,27.89,West,259,0.0,0.0,80,0.00,CLR,,0.00,WeatherDisplay:10.37,2013-02-14 03:20:00,
2013-02-13 22:25:00,28.0,22.7,27.89,West,259,0.0,0.0,80,0.00,CLR,,0.00,WeatherDisplay:10.37,2013-02-14 03:25:00,
2013-02-13 22:30:00,28.2,23.1,27.89,West,259,0.0,0.0,81,0.00,CLR,,0.00,WeatherDisplay:10.37,2013-02-14 03:30:00,
2013-02-13 22:35:00,28.2,23.4,27.89,West,259,0.0,0.0,82,0.00,CLR,,0.00,WeatherDisplay:10.37,2013-02-14 03:35:00,
2013-02-13 22:40:00,28.0,23.3,27.89,West,259,0.0,0.0,82,0.00,CLR,,0.00,WeatherDisplay:10.37,2013-02-14 03:40:00,
2013-02-13 22:45:00,27.9,23.1,27.89,West,259,0.0,0.0,82,0.00,CLR,,0.00,WeatherDisplay:10.37,2013-02-14 03:45:00,
2013-02-13 22:50:00,27.7,22.9,27.89,West,259,0.0,0.0,82,0.00,CLR,,0.00,WeatherDisplay:10.37,2013-02-14 03:50:00,
2013-02-13 22:55:00,27.3,22.8,27.89,West,259,0.0,0.0,83,0.00,CLR,,0.00,WeatherDisplay:10.37,2013-02-14 03:55:00,
2013-02-13 23:00:00,27.5,23.6,27.89,NW,318,0.0,0.0,85,0.00,CLR,,0.00,WeatherDisplay:10.37,2013-02-14 04:00:00,
2013-02-13 23:05:00,27.7,24.0,27.89,NW,318,0.0,0.0,86,0.00,CLR,,0.00,WeatherDisplay:10.37,2013-02-14 04:05:00,
2013-02-13 23:10:00,27.3,23.7,27.89,NW,318,0.0,0.0,86,0.00,CLR,,0.00,WeatherDisplay:10.37,2013-02-14 04:10:00,
2013-02-13 23:15:00,27.3,23.4,27.89,NW,318,0.0,0.0,85,0.00,CLR,,0.00,WeatherDisplay:10.37,2013-02-14 04:15:00,
2013-02-13 23:20:00,27.3,23.4,27.89,NW,318,0.0,0.0,85,0.00,CLR,,0.00,WeatherDisplay:10.37,2013-02-14 04:20:00,
2013-02-13 23:25:00,27.3,23.7,27.89,NW,318,0.0,0.0,86,0.00,CLR,,0.00,WeatherDisplay:10.37,2013-02-14 04:25:00,
2013-02-13 23:30:00,27.7,24.6,27.89,South,182,0.0,0.0,88,0.00,CLR,,0.00,WeatherDisplay:10.37,2013-02-14 04:30:00,
2013-02-13 23:35:00,28.2,25.7,27.89,South,182,0.0,0.0,90,0.00,CLR,,0.00,WeatherDisplay:10.37,2013-02-14 04:35:00,
2013-02-13 23:40:00,28.6,26.3,27.89,South,182,0.0,0.0,91,0.00,CLR,,0.00,WeatherDisplay:10.37,2013-02-14 04:40:00,
2013-02-13 23:45:00,28.9,26.9,27.89,South,182,0.0,0.0,92,0.00,CLR,,0.00,WeatherDisplay:10.37,2013-02-14 04:45:00,
2013-02-13 23:50:00,29.1,27.3,27.89,South,182,0.0,0.0,93,0.00,CLR,,0.00,WeatherDisplay:10.37,2013-02-14 04:50:00,
2013-02-13 23:55:00,29.3,27.8,27.89,South,182,0.0,0.0,94,0.00,CLR,,0.00,WeatherDisplay:10.37,2013-02-14 04:55:00,